STARLINK-35824

Last updated on Sun Dec 07 2025 00:02:05 GMT+0000 (Coordinated Universal Time)

1 66370U 25254Y 25339.95114759 .00487633 00000+0 30358-2 0 9994 2 66370 53.1578 308.5735 0001262 61.4125 298.7022 15.75006861 4614
UTC large
Height (km)
Speed (km/s)
/
Latitude / Longitude
Inclination (degrees)
Orbital Period (minutes)
Azimuth
Elevation
Range (km)
Doppler Factor

Next 0 passes for location: London (51.5072 / 0.1276)

Sorry there are no passes over London.